Dallesport, WA

2:24 PM PST on December 08, 2016 (GMT -0800)
Columbia Gorge Regional-The Dalles

Weather History for KDLS - April, 2014

Change the Weather History Date:

Friday, April 4, 2014

  Actual Average Record
Temperature  
Mean Temperature 52 °F -  
Max Temperature 60 °F 61 °F 78 °F (1949)
Min Temperature 46 °F 40 °F 28 °F (1961)
Degree Days  
Heating Degree Days 12    
Growing Degree Days 2 (Base 50)    
Moisture  
Dew Point 39 °F    
Average Humidity 63    
Maximum Humidity 86    
Minimum Humidity 44    
Precipitation  
Precipitation 0.00 in - - ()
Sea Level Pressure  
Sea Level Pressure 29.94 in    
Wind  
Wind Speed 9 mph (NW)    
Max Wind Speed 24 mph    
Max Gust Speed 31 mph    
Visibility 10 miles    
Events      
Averages and records for this station are not official NWS values.
T = Trace of Precipitation, MM = Missing Value Source: NWS Daily Summary

Daily Weather History Graph

Daily Weather History Graph

Search for Another Location

Airport or City:

Trip Planner

Search our weather history database for the weather conditions in past years. The results will help you decide how hot, cold, wet, or windy it might be!

Date:

Astronomy

Apr. 04, 2014 Rise Set
Actual Time 6:38 AM PDT 7:36 PM PDT
Civil Twilight 6:08 AM PDT 8:07 PM PDT
Nautical Twilight 5:32 AM PDT 8:43 PM PDT
Astronomical Twilight 4:54 AM PDT 9:21 PM PDT
Moon 9:49 AM PDT (4/4) 12:10 AM PDT (4/4)
Length of Visible Light 13h 58m
Length of Day
12h 57m
Waxing Crescent, 26% of the Moon is Illuminated
Apr 4
Waxing Crescent
Apr 7
First Quarter
Apr 15
Full
Apr 22
Last Quarter
Apr 28
New

Hourly Weather History & Observations

Time (PDT) Temp. Dew Point Humidity Pressure Visibility Wind Dir Wind Speed Gust Speed Precip Events Conditions
12:53 AM 50.0 °F 39.0 °F 66% 29.95 in 10.0 mi WNW 5.8 mph - N/A   Overcast
1:53 AM 48.9 °F 39.0 °F 69% 29.94 in 10.0 mi NNW 4.6 mph - N/A   Overcast
2:53 AM 48.0 °F 39.9 °F 74% 29.94 in 10.0 mi NW 8.1 mph - N/A   Overcast
3:53 AM 48.0 °F 39.0 °F 71% 29.94 in 10.0 mi West 4.6 mph - N/A   Overcast
4:53 AM 46.9 °F 39.9 °F 77% 29.93 in 10.0 mi North 6.9 mph - N/A   Overcast
5:53 AM 46.9 °F 39.9 °F 77% 29.94 in 10.0 mi WNW 6.9 mph - N/A   Overcast
6:53 AM 46.9 °F 39.9 °F 77% 29.95 in 10.0 mi WNW 5.8 mph - 0.00 in   Overcast
7:53 AM 46.0 °F 42.1 °F 86% 29.96 in 10.0 mi Calm Calm - N/A   Clear
8:53 AM 48.9 °F 41.0 °F 74% 29.97 in 10.0 mi North 8.1 mph - N/A   Partly Cloudy
9:53 AM 50.0 °F 42.1 °F 74% 29.97 in 10.0 mi NW 9.2 mph - N/A   Overcast
10:53 AM 54.0 °F 39.9 °F 59% 29.96 in 10.0 mi NW 15.0 mph - N/A   Scattered Clouds
11:53 AM 55.0 °F 37.9 °F 53% 29.95 in 10.0 mi NNW 21.9 mph - N/A   Clear
12:53 PM 57.9 °F 36.0 °F 44% 29.94 in 10.0 mi NNW 18.4 mph - N/A   Clear
1:53 PM 57.9 °F 36.0 °F 44% 29.92 in 10.0 mi NW 20.7 mph 28.8 mph N/A   Partly Cloudy
2:53 PM 59.0 °F 37.0 °F 44% 29.91 in 10.0 mi NW 24.2 mph 31.1 mph N/A   Scattered Clouds
3:53 PM 59.0 °F 37.0 °F 44% 29.90 in 10.0 mi NW 19.6 mph 26.5 mph N/A   Partly Cloudy
4:53 PM 57.9 °F 37.0 °F 46% 29.90 in 10.0 mi NW 19.6 mph 28.8 mph N/A   Clear
5:53 PM 55.9 °F 37.9 °F 51% 29.91 in 10.0 mi WNW 16.1 mph - N/A   Clear
6:53 PM 53.1 °F 37.9 °F 57% 29.92 in 10.0 mi NW 13.8 mph - N/A   Clear
7:53 PM 51.1 °F 37.9 °F 61% 29.93 in 10.0 mi West 9.2 mph - N/A   Partly Cloudy
8:53 PM 51.1 °F 37.9 °F 61% 29.95 in 10.0 mi WNW 9.2 mph - N/A   Clear
9:53 PM 48.9 °F 37.9 °F 66% 29.96 in 10.0 mi Variable 3.5 mph - N/A   Clear
10:53 PM 48.0 °F 37.9 °F 68% 29.96 in 10.0 mi NW 5.8 mph - N/A   Overcast
11:53 PM 48.9 °F 39.0 °F 69% 29.97 in 10.0 mi WNW 5.8 mph - N/A   Overcast